This is the latest recevied weather packets stored in our database for station/object YO4CIL-MG. If no packets are shown the sender has not sent any weather packets the latest 10 day(s).
| Time | Temp. | Humidity | Pressure | Rain* | Wind** | Luminosity | Snow |
|---|---|---|---|---|---|---|---|
| 1777201515 | 23.89° C | 33% | 1009.3 hPa | - | - | - | - |
| 1777200915 | 23.89° C | 33% | 1009.4 hPa | - | - | - | - |
| 1777200315 | 23.89° C | 33% | 1009.3 hPa | - | - | - | - |
| 1777199715 | 23.33° C | 33% | 1009.6 hPa | - | - | - | - |
| 1777199115 | 23.33° C | 34% | 1009.6 hPa | - | - | - | - |
| 1777198515 | 23.33° C | 34% | 1009.5 hPa | - | - | - | - |
| 1777197915 | 23.33° C | 35% | 1009.6 hPa | - | - | - | - |
| 1777197315 | 23.33° C | 33% | 1009.8 hPa | - | - | - | - |
| 1777196715 | 23.33° C | 33% | 1009.7 hPa | - | - | - | - |
| 1777196115 | 22.78° C | 34% | 1009.7 hPa | - | - | - | - |
| 1777195515 | 23.33° C | 34% | 1009.8 hPa | - | - | - | - |
| 1777194915 | 22.78° C | 34% | 1009.9 hPa | - | - | - | - |
| 1777194314 | 22.78° C | 35% | 1010.1 hPa | - | - | - | - |
| 1777193715 | 22.22° C | 36% | 1010.2 hPa | - | - | - | - |
| 1777193115 | 22.22° C | 37% | 1010.2 hPa | - | - | - | - |
| 1777192514 | 22.22° C | 38% | 1010.5 hPa | - | - | - | - |
| 1777191915 | 22.22° C | 38% | 1010.7 hPa | - | - | - | - |
| 1777191315 | 21.67° C | 40% | 1010.6 hPa | - | - | - | - |
| 1777190715 | 21.67° C | 40% | 1010.7 hPa | - | - | - | - |
| 1777190114 | 21.67° C | 41% | 1010.9 hPa | - | - | - | - |
| 1777189515 | 21.11° C | 41% | 1010.9 hPa | - | - | - | - |
| 1777188915 | 21.11° C | 41% | 1010.9 hPa | - | - | - | - |
| 1777188314 | 20.56° C | 43% | 1011 hPa | - | - | - | - |
| 1777187714 | 20° C | 46% | 1011.1 hPa | - | - | - | - |
| 1777187114 | 19.44° C | 48% | 1011.2 hPa | - | - | - | - |
* Rain since midnight (hover to see other rain measurements)
** Current wind speed in m/s (hover to see current wind gust speed)